Location: Bonningues
(50.7927°N, 2.0150°E)
Time: 04:29:27
(UTC+00:00)

Cosmos 2016 Rocket - Pass Details

Date: 08 August 2020
Orbit: 946 x 1001 km, 83.0° (Epoch: 19 September)

Event Time Altitude Azimuth Distance (km) Brightness Sun altitude
Exits shadow 22:40:01 38° 175° (S) 1,463 4.4 -21.3°
Maximum altitude 22:42:36 78° 96° (E) 1,024 4.0 -21.4°
Drops below altitude 10° 22:49:00 10° 12° (NNE) 2,784 7.2 -21.7°
Sets 22:51:33 0° 11° (NNE) 3,739 8.1 -21.9°
